Regional Weather Roundup
Issued by NWS

Home | Current Version | Previous Version | Graphics & Text | Print | Product List | Glossary On
Versions: 1 2 3 4 5 6 7 8 9 10 11 12 13 14 15 16 17 18 19 20 21 22 23 24 25 26 27 28 29 30 31 32 33 34 35 36 37 38 39 40 41 42 43 44 45 46 47 48 49 50
000
ASUS43 KIND 030459
RWRIN

WEATHER ROUNDUP FOR INDIANA
NATIONAL WEATHER SERVICE INDIANAPOLIS IN
100 AM EDT FRI JUL 03 2015

NOTE: "FAIR" INDICATES FEW OR NO CLOUDS BELOW 12,000 FEET WITH NO
SIGNIFICANT WEATHER AND/OR OBSTRUCTIONS TO VISIBILITY.

* - STATION DOES NOT REPORT WEATHER SUCH AS PRECIPITATION OR FOG.

+ - STATION NOT QUALITY CONTROLLED BY THE NATIONAL WEATHER SERVICE.
    USE DATA WITH CAUTION...ESPECIALLY DEWPOINT AND RELATIVE
    HUMIDITY OBSERVATIONS.

INZ001>003-010>013-019-020-030600-
NORTHWEST INDIANA

CITY           SKY/WX    TMP DP  RH WIND       PRES   REMARKS
MONTICELLO +   MOCLDY    64  59  84 NE5       29.95R
RENSSELAER +   PTCLDY    61  59  94 N5        29.96S

$$

LMZ046-743>745-030600-
SOUTHERN LAKE MICHIGAN

STATION/POSITION TIME  TEMP    WIND        PRES    WAVE
                       AIR SEA DIR/SP/G            HT
                 (UTC) (F)     (DEG/KT/KT) (MB)    (FT)
BURNS HARBOR     0400   62      60/ 11/ 12 1015.6F
MICHIGAN CITY    0400   60      30/ 10/ 11   N/A
5NW MICH CITY    0400   62 63   70/ 10/ 14   N/A     3

$$

INZ004-005-014>016-021>024-030600-
NORTH CENTRAL INDIANA

CITY           SKY/WX    TMP DP  RH WIND       PRES   REMARKS
GOSHEN         MOCLDY    61  55  81 E3        29.98S
PERU/GRISSOM   CLEAR     65  56  73 E8        29.95R
SOUTH BEND     MOCLDY    59  55  87 N3        29.99S

$$

INZ006>009-017-018-025>027-030600-
NORTHEAST INDIANA

CITY           SKY/WX    TMP DP  RH WIND       PRES   REMARKS
ANGOLA *+        N/A     59  54  82 CALM      29.99S
FORT WAYNE     PTCLDY    61  54  77 E3        29.98S

$$

INZ028-029-035-036-043>045-051>053-030600-
WEST CENTRAL INDIANA

CITY           SKY/WX    TMP DP  RH WIND       PRES   REMARKS
CRAWFORDSVL +  MOCLDY    65  58  78 NE6       29.92S
GREENCASTLE +  MOCLDY    68  61  77 N5        29.91R
LAFAYETTE      MOCLDY    67  58  72 NE10      29.93R
TERRE HAUTE    MOCLDY    71  65  81 NE6       29.89S

$$

INZ030>032-037>040-046>048-054>057-064-065-030600-
CENTRAL INDIANA

CITY           SKY/WX    TMP DP  RH WIND       PRES   REMARKS
GREENWOOD *+   CLOUDY    70  59  68 NE10      29.92S
INDIANAPOLIS   CLOUDY    72  61  68 E10       29.89S
-EAGLE CREEK   CLOUDY    71  62  73 NE7       29.91S
KOKOMO *+      PTCLDY    64  55  72 E10       29.95S
MT COMFORT *+  MOCLDY    68  66  94 NE8       29.93S
SHELBYVILLE    CLOUDY    71  63  75 NE9       29.90S

$$

INZ033-034-041-042-049-050-058-059-030600-
EAST CENTRAL INDIANA

CITY           SKY/WX    TMP DP  RH WIND       PRES   REMARKS
MUNCIE         CLEAR     65  58  78 E7        29.95S

$$

INZ060-061-067>069-081>083-085>088-030600-
SOUTHWEST INDIANA

CITY           SKY/WX    TMP DP  RH WIND       PRES   REMARKS
EVANSVILLE     CLOUDY    74  70  87 CALM      29.87R FOG
HUNTINGBURG *+ CLOUDY    72  68  88 N3        29.86S

$$

INZ062-063-066-070>080-084-089>092-030600-
SOUTH CENTRAL AND SOUTHEAST INDIANA

CITY           SKY/WX    TMP DP  RH WIND       PRES   REMARKS
BLOOMINGTON    MOCLDY    71  66  84 E6        29.89R
MADISON *+     CLOUDY    70  68  94 E6        29.90S
SEYMOUR +      CLOUDY    72  70  94 E7        29.89R

$$



USA.gov is the U.S. government's official web portal to all federal, state and local government web resources and services.